sat.trackr.live / text

‹ back to catalog

STARLINK-30856

NORAD 58725 · 2024-002W

PAYLOAD ACTIVE UNKNOWN

§ Identity

Operator
Country
US
Launch date
2024-01-03
Launch site
AFWTR
Launch vehicle
Mass (kg)
RCS (m²)

Purposes: comms

External: N2YO · Heavens-Above · Gunter

§ Orbital elements

Epoch: 2026-09-20T21:47:53.083392Z

Period
93.90 min
Inclination
53.1584°
Eccentricity
0.0001373
Mean motion
15.33554631 rev/d
Perigee alt
464.3 km
Apogee alt
466.2 km
Semi-major
6,843.4 km
B*
6.7910e-5
RAAN
41.7804°
Arg perigee
84.5566°
Mean anomaly
275.5593°
Rev number
15,192

§ Raw data

STARLINK-308561 58725U 24002W   26263.90825328  .00001862  00000+0  67910-4 0  99942 58725  53.1584  41.7804 0001373  84.5566 275.5593 15.33554631151927

JSON: /api/v1/satellites/58725 · /tle

For live sub-satellite position, see the globe view (requires WebGL).

§ Visibility from observer

Set your observer location to see the next 7 days of passes ≥ 10°. The values pass through the URL so the page stays shareable.

No JS? Fill the form by hand. The geolocation button needs JavaScript.